User: anonymous
Location: Broad Creek
(39.7000°N, 76.2570°W)
Time: 23:28:57
(UTC-04:00)
Language:

ETS-7 - Orbit

View from above orbital plane
View from above orbital plane
View from above satellite
View from above satellite

Ground track
Ground track

The orbit data is extracted from the following two-line orbital elements,

1 25064U 97074B   14258.76148762  .00022624  00000-0  37245-3 0  2493
2 25064 034.9631 034.6081 0003065 198.1155 269.9839 15.51365107935233
Epoch (UTC): 15 September 2014 18:16:32
Eccentricity: 0.0003065
inclination: 34.9631°
perigee height: 410 km
apogee height: 415 km
right ascension of ascending node: 34.6081°
argument of perigee: 198.1155°
revolutions per day: 15.51365107
mean anomaly at epoch: 269.9839°
orbit number at epoch: 93523

The dashed part of the orbit path shows where the satellite is in the earth's shadow,  

DLR